AirNav   Jet Aviation Boston
 
 1173 users online  

2VA9 Airlie Airport
Warrenton, Virginia, USA

GOING TO WARRENTON?


FAA INFORMATION EFFECTIVE 26 APRIL 2018

Location

FAA Identifier: 2VA9
Lat/Long: 38-45-28.4200N / 077-47-13.9750W
38-45.473667N / 077-47.232917W
38.7578944 / -77.7872153
(estimated)
Elevation: 522 ft. / 159.1 m (surveyed)
Variation: 09W (1985)
From city: 3 miles NE of WARRENTON, VA
Time zone: UTC -4 (UTC -5 during Standard Time)
Zip code: 20187

Airport Operations

Airport use: Private use. Permission required prior to landing
Activation date: 03/1972
Control tower: no
ARTCC: WASHINGTON CENTER
FSS: LEESBURG FLIGHT SERVICE STATION
Attendance: UNATNDD
Wind indicator: yes
Segmented circle: no
Lights: FOR RWY LGTS CALL 540-347-1300.

Airport Communications

WX AWOS-3 at HWY (11 nm S): 120.350 (540-788-4078)
WX AWOS-3PT at HEF (13 nm E): PHONE 703-361-6160
WX AWOS-3 at CJR (14 nm S): 119.325 (540-727-0523)
WX ASOS at IAD (19 nm NE): PHONE 703-661-2990

Nearby radio navigation aids

VOR radial/distance  VOR name  Freq  Var
CSNr034/7.9CASANOVA VORTAC116.3006W
AMLr243/18.4ARMEL VOR/DME113.5008W
LDNr112/20.4LINDEN VORTAC114.3006W
BRVr330/32.5BROOKE VORTAC114.5009W
DCAr269/35.6WASHINGTON VOR/DME111.0009W
MRBr183/37.8MARTINSBURG VORTAC112.1007W

 
NDB name  Hdg/Dist  Freq  Var  ID
GOODWIN LAKE178/11.922708WGDX --. -.. -..-
NAILR027/19.035110WMSQ -- ... --.-
DAVEE289/32.222309WDAA -.. .- .-
CAVERNS093/32.324509WLUA .-.. ..- .-
GEORGETOWN261/32.732309WGTN --. - -.
SHANNON342/33.523710WEZF . --.. ..-.
OXONN280/35.633211WDCA -.. -.-. .-

Airport Services

Runway Information

Runway 3/21

Dimensions: 3250 x 50 ft. / 991 x 15 m
Surface: asphalt
Runway edge lights: low intensity
RUNWAY 3  RUNWAY 21
Traffic pattern: rightleft
Displaced threshold: 400 ft.no
Obstructions: trees, 500 ft. from runwaytrees, 1000 ft. from runway

Airport Ownership and Management from official FAA records

Ownership: Privately-owned
Owner: AIRLIE FOUNDATION
6809 AIRLIE ROAD
WARRENTON, VA 20187
Phone 540-347-1300
Manager: K. CARTER
6809 AIRLIE ROAD
WARRENTON, VA 20187
Phone 540-347-1300

Instrument Procedures

There are no published instrument procedures at 2VA9.

Some nearby airports with instrument procedures:

KHWY - Warrenton-Fauquier Airport (11 nm S)
KHEF - Manassas Regional Airport/Harry P. Davis Field (13 nm E)
2VG2 - Upperville Airport (13 nm N)
KCJR - Culpeper Regional Airport (14 nm S)
KIAD - Washington Dulles International Airport (19 nm NE)
 
Loc | Ops | Rwys | IFR | FBO | Links
Com | Nav | Svcs | Stats | Notes

AirNav Hotels Sweepstakes
 
Area around 2VA9 (Airlie Airport)
 
Road maps at: MapQuest Bing Google
 
Aerial photo
No photo
 
Sectional chart

 
Airport distance calculator
Flying to Airlie Airport? Find the distance to fly.

From to 2VA9

Sunrise and sunset
Times for 21-May-2018
 Local
(UTC-4)
 Zulu
(UTC)
Morning civil twilight05:2509:25
Sunrise05:5509:55
Sunset20:2000:20
Evening civil twilight20:5100:51

Current date and time
Zulu (UTC)  21-May-2018 23:17:47
Local (UTC-4)  21-May-2018 19:17:47
 
METAR
KHWY 
11nm S 
212255Z AUTO 12006KT 10SM BKN049 25/17 A3012 RMK AO2 T02490165
KHEF 
13nm E 
212256Z 16007KT 10SM CLR 24/19 A3013 RMK AO2 SLP210 T02440189 PNO $
KIAD 
19nm NE 
212252Z 17007KT 10SM BKN050 BKN080 BKN230 24/18 A3012 RMK AO2 SLP198 T02440183
KJYO 
21nm NE 
212255Z AUTO 18007KT 10SM SCT045 OVC060 26/18 A3013 RMK AO2
KCJR 
22nm SW 
212255Z AUTO 00000KT 10SM BKN050 26/18 A3013 RMK AO2 T02560183
TAF
KIAD 
19nm NE 
212058Z 2121/2224 14005KT P6SM SCT060 SCT200 FM220800 16004KT P6SM VCSH OVC015 FM221100 16004KT P6SM VCSH OVC010 FM221400 17004KT P6SM VCSH BKN025 BKN200 FM221800 19005KT P6SM -SHRA BKN050 BKN200
NOTAMs
Click for the latest NOTAMs
NOTAMs are issued by the DoD/FAA and will open in a separate window not controlled by AirNav.

 

 
 

Would you like to see your business listed on this page?

 If your business provides an interesting product or service to pilots, flight crews, aircraft, or users of the Airlie Airport, you should consider listing it here.  To start the listing process, click on the button below
 
Add a business
 

Other Pages about Airlie Airport

www.airlie.com
 
Update a link
 
Copyright © AirNav, LLC. All rights reserved. Privacy Policy  Contact